Location: Aldenham
(51.6667°N, 0.3500°W)
Time: 06:46:24
(UTC+00:00)

Altair - Pass Details

Date: 18 February 2026
Orbit: 1502 x 1682 km, 47.2° (Epoch: 9 March)

Event Time Altitude Azimuth Distance (km) Brightness Sun altitude
Rises 11:11:58 0° 287° (WNW) 4,733 9.8 25.3°
Reaches altitude 10° 11:15:32 10° 276° (W) 3,773 9.4 25.5°
Maximum altitude 11:23:11 28° 223° (SW) 2,665 9.5 25.8°
Drops below altitude 10° 11:31:04 10° 169° (S) 3,876 11.5 26.1°
Sets 11:34:49 0° 158° (SSE) 4,882 11.4 26.2°
